Location: Unspecified
(43.0000°N, 0.0000°E)
Time: 20:20:43
(UTC+00:00)

PicSat - Visible Passes

Search period start: 17 July 2019 00:00
Search period end: 27 July 2019 00:00
Orbit: 486 x 500 km, 97.5° (Epoch: 17 July)

Date Brightness Start Highest point End Pass type
(mag) Time Alt. Az. Time Alt. Az. Time Alt. Az.
17 Jul ? 21:36:28 39° SSE 21:37:44 89° ENE 21:41:24 10° NNW visible
18 Jul ? 21:14:35 28° SE 21:16:04 46° ENE 21:19:34 10° N visible
18 Jul ? 22:49:07 11° WSW 22:49:55 12° W 22:51:15 10° WNW visible
19 Jul ? 20:52:41 18° ESE 20:54:27 25° ENE 20:57:29 10° NNE visible
19 Jul ? 22:27:14 19° WSW 22:28:02 21° W 22:30:51 10° NW visible
20 Jul ? 20:30:49 10° E 20:32:55 15° ENE 20:35:01 10° NNE visible
20 Jul ? 22:05:20 32° SW 22:06:12 38° W 22:09:38 10° NNW visible
21 Jul ? 21:43:27 45° S 21:44:26 75° WSW 21:48:05 10° NNW visible
22 Jul ? 21:21:33 36° SE 21:22:45 56° ENE 21:26:19 10° N visible
23 Jul ? 20:59:40 22° ESE 21:01:07 30° ENE 21:04:19 10° N visible
23 Jul ? 22:34:12 17° WSW 22:34:46 18° W 22:37:16 10° NW visible
24 Jul ? 20:37:46 13° E 20:39:32 17° ENE 20:41:59 10° NNE visible
24 Jul ? 22:12:19 29° WSW 22:12:55 31° W 22:16:12 10° NNW visible
25 Jul ? 21:50:25 49° SSW 21:51:07 61° W 21:54:44 10° NNW visible
26 Jul ? 21:28:31 47° SE 21:29:24 68° ENE 21:33:01 10° N visible
